Preview of NWS' New Version of Forecast
This preview is not operational and should not be used for support decisions.

Regional Weather Roundup (RWR)

Issued by National Weather Service (NWS)

                            
000
ASUS44 KMEG 190600
RWRTN 
TENNESSEE HOURLY STATE WEATHER ROUNDUP
NATIONAL WEATHER SERVICE MEMPHIS TN
100 AM CDT FRI APR 19 2019

TNZ002-004-019-021-049-052-054-088>092-190700-
WEST TENNESSEE
  
CITY           SKY/WX    TMP DP  RH WIND       PRES   REMARKS
MEMPHIS INTL   LGT RAIN  49  47  93 N17       29.68R FOG              
NWS MEMPHIS      N/A     48 N/A N/A MISG        N/A                   
JACKSON        CLOUDY    50  48  93 N16       29.62R                  
DYERSBURG      LGT RAIN  48  46  93 N15G21    29.66S                  
$$

TNZ008-025-027-028-033-062-065-066-190700-
NORTH MIDDLE TENNESSEE
  
CITY           SKY/WX    TMP DP  RH WIND       PRES   REMARKS
NASHVILLE      CLOUDY    60  57  89 S5        29.56F                  
CLARKSVILLE    HVY RAIN  55  52  89 NW15      29.57R FOG              
SMYRNA         CLOUDY    59  58  96 S6        29.57F                  
CROSSVILLE     LGT RAIN  60  57  89 S13G22    29.62F                  
$$

TNZ061-075-076-078-094-096-097-190700-
SOUTH MIDDLE TENNESSEE
  
CITY           SKY/WX    TMP DP  RH WIND       PRES   REMARKS
$$

TNZ017-018-042-046-047-190700-
NORTHEAST TENNESSEE
  
CITY           SKY/WX    TMP DP  RH WIND       PRES   REMARKS
TRI CITIES     MOCLDY    70  53  54 S8        29.73F                  
$$

TNZ012-013-036-069-073-074-190700-
CENTRAL EAST TENNESSEE
  
CITY           SKY/WX    TMP DP  RH WIND       PRES   REMARKS
KNOXVILLE      RAIN      63  59  87 S21G37    29.69R                  
OAK RIDGE      LGT RAIN  64  61  90 VRB3      29.70                   
$$

TNZ083-085-099-190700-
SOUTHEAST TENNESSEE
  
CITY           SKY/WX    TMP DP  RH WIND       PRES   REMARKS
CHATTANOOGA    LGT RAIN  64  61  90 SE10      29.64F                  
$$

SKY/WX REPORTED AS FAIR MEANS FEW OR NO CLOUDS BELOW
12 THOUSAND FEET.